owner,sensor,date,latitude,longitude,vertical_datum,direction_of_sea_water_velocity,sea_water_speed,upward_sea_water_velocity,qcFlag 
TABS,ioos:station:wmo:42048:1,2008-01-01T00:00:00Z,27.9396,-96.8429,2.0,235.1751714,14.28910424,-99999.0,'11111222,11111222,99999999' 
TABS,ioos:station:wmo:42048:1,2008-01-01T00:30:00Z,27.9396,-96.8429,2.0,236.7610746,14.43097363,-99999.0,'11111222,11111222,99999999' 
TABS,ioos:station:wmo:42048:1,2008-01-01T01:00:00Z,27.9396,-96.8429,2.0,241.645898,13.18133529,-99999.0,'11111222,11111222,99999999' 
TABS,ioos:station:wmo:42048:1,2008-01-01T01:30:00Z,27.9396,-96.8429,2.0,246.1719932,12.07960678,-99999.0,'11111222,11111222,99999999' 
TABS,ioos:station:wmo:42048:1,2008-01-01T02:00:00Z,27.9396,-96.8429,2.0,239.8850847,11.91874574,-99999.0,'11111222,11111222,99999999' 
TABS,ioos:station:wmo:42048:1,2008-01-01T02:30:00Z,27.9396,-96.8429,2.0,239.1999609,10.78044526,-99999.0,'11111222,11111222,99999999' 
TABS,ioos:station:wmo:42048:1,2008-01-01T03:00:00Z,27.9396,-96.8429,2.0,232.687339,10.36030888,-99999.0,'11111222,11111222,99999999' 
TABS,ioos:station:wmo:42048:1,2008-01-01T03:30:00Z,27.9396,-96.8429,2.0,213.7220939,19.66967209,-99999.0,'11111222,11111222,99999999' 
TABS,ioos:station:wmo:42048:1,2008-01-01T04:00:00Z,27.9396,-96.8429,2.0,200.0287823,17.05127561,-99999.0,'11111222,11111222,99999999' 
TABS,ioos:station:wmo:42048:1,2008-01-01T04:30:00Z,27.9396,-96.8429,2.0,181.4136466,12.56382505,-99999.0,'11111222,11111222,99999999' 
TABS,ioos:station:wmo:42048:1,2008-01-01T05:00:00Z,27.9396,-96.8429,2.0,188.4601267,10.05946818,-99999.0,'11111222,11111222,99999999' 
TABS,ioos:station:wmo:42048:1,2008-01-01T05:30:00Z,27.9396,-96.8429,2.0,221.6878971,15.66736736,-99999.0,'11111222,11111222,99999999' 
TABS,ioos:station:wmo:42048:1,2008-01-01T11:00:00Z,27.9396,-96.8429,2.0,229.1113427,37.67261605,-99999.0,'11111222,11111222,99999999' 
TABS,ioos:station:wmo:42048:1,2008-01-01T11:30:00Z,27.9396,-96.8429,2.0,232.9111394,38.78628237,-99999.0,'11111222,11111222,99999999' 
TABS,ioos:station:wmo:42048:1,2008-01-01T12:00:00Z,27.9396,-96.8429,2.0,219.0075126,39.08320483,-99999.0,'11111222,11111222,99999999' 
TABS,ioos:station:wmo:42048:1,2008-01-01T12:30:00Z,27.9396,-96.8429,2.0,230.4682806,44.14762168,-99999.0,'11111222,11111222,99999999' 
TABS,ioos:station:wmo:42048:1,2008-01-01T13:00:00Z,27.9396,-96.8429,2.0,227.8647021,38.62094898,-99999.0,'11111222,11111222,99999999' 
TABS,ioos:station:wmo:42048:1,2008-01-01T13:30:00Z,27.9396,-96.8429,2.0,227.4900476,43.1247458,-99999.0,'11111222,11111222,99999999' 
TABS,ioos:station:wmo:42048:1,2008-01-01T14:00:00Z,27.9396,-96.8429,2.0,224.0362002,43.73366667,-99999.0,'11111222,11111222,99999999' 
TABS,ioos:station:wmo:42048:1,2008-01-01T14:30:00Z,27.9396,-96.8429,2.0,235.8269973,37.86795215,-99999.0,'11111222,11111222,99999999' 
TABS,ioos:station:wmo:42048:1,2008-01-01T15:00:00Z,27.9396,-96.8429,2.0,232.2624965,37.92234434,-99999.0,'11111222,11111222,99999999' 
TABS,ioos:station:wmo:42048:1,2008-01-01T15:30:00Z,27.9396,-96.8429,2.0,224.4622535,42.21613199,-99999.0,'11111222,11111222,99999999' 
TABS,ioos:station:wmo:42048:1,2008-01-01T16:00:00Z,27.9396,-96.8429,2.0,221.4393296,45.88787313,-99999.0,'11111222,11111222,99999999' 
TABS,ioos:station:wmo:42048:1,2008-01-01T16:30:00Z,27.9396,-96.8429,2.0,221.0064131,39.701437,-99999.0,'11111222,11111222,99999999' 
TABS,ioos:station:wmo:42048:1,2008-01-01T17:00:00Z,27.9396,-96.8429,2.0,225.3389309,42.99284592,-99999.0,'11111222,11111222,99999999' 
TABS,ioos:station:wmo:42048:1,2008-01-01T17:30:00Z,27.9396,-96.8429,2.0,225.8297446,46.36985767,-99999.0,'11111222,11111222,99999999' 
TABS,ioos:station:wmo:42048:1,2008-01-01T18:00:00Z,27.9396,-96.8429,2.0,226.5190808,41.86837112,-99999.0,'11111222,11111222,99999999' 
TABS,ioos:station:wmo:42048:1,2008-01-01T18:30:00Z,27.9396,-96.8429,2.0,223.5887468,37.33241487,-99999.0,'11111222,11111222,99999999' 
TABS,ioos:station:wmo:42048:1,2008-01-01T19:00:00Z,27.9396,-96.8429,2.0,223.3251694,44.52431471,-99999.0,'11111222,11111222,99999999' 
TABS,ioos:station:wmo:42048:1,2008-01-01T19:30:00Z,27.9396,-96.8429,2.0,222.7739053,40.96531826,-99999.0,'11111222,11111222,99999999' 
TABS,ioos:station:wmo:42048:1,2008-01-01T20:00:00Z,27.9396,-96.8429,2.0,222.1092663,48.37815313,-99999.0,'11111222,11111222,99999999' 
TABS,ioos:station:wmo:42048:1,2008-01-01T20:30:00Z,27.9396,-96.8429,2.0,220.450105,44.48282927,-99999.0,'11111222,11111222,99999999' 
TABS,ioos:station:wmo:42048:1,2008-01-01T21:00:00Z,27.9396,-96.8429,2.0,218.6917016,44.47048572,-99999.0,'11111222,11111222,99999999' 
TABS,ioos:station:wmo:42048:1,2008-01-01T21:30:00Z,27.9396,-96.8429,2.0,221.3244292,38.82930852,-99999.0,'11111222,11111222,99999999' 
TABS,ioos:station:wmo:42048:1,2008-01-01T22:00:00Z,27.9396,-96.8429,2.0,218.752483,35.60922633,-99999.0,'11111222,11111222,99999999' 
TABS,ioos:station:wmo:42048:1,2008-01-01T22:30:00Z,27.9396,-96.8429,2.0,215.9002293,36.52922802,-99999.0,'11111222,11111222,99999999' 
TABS,ioos:station:wmo:42048:1,2008-01-01T23:00:00Z,27.9396,-96.8429,2.0,217.2100541,41.73673682,-99999.0,'11111222,11111222,99999999' 
TABS,ioos:station:wmo:42048:1,2008-01-01T23:30:00Z,27.9396,-96.8429,2.0,215.0657393,34.88128581,-99999.0,'11111222,11111222,99999999' 
TABS,ioos:station:wmo:42048:1,2008-01-02T00:00:00Z,27.9396,-96.8429,2.0,221.5425427,40.92403328,-99999.0,'11111222,11111222,99999999' 
TABS,ioos:station:wmo:42048:1,2008-01-02T00:30:00Z,27.9396,-96.8429,2.0,220.8550703,39.13463939,-99999.0,'11111222,11111222,99999999' 
TABS,ioos:station:wmo:42048:1,2008-01-02T01:00:00Z,27.9396,-96.8429,2.0,218.1974558,39.7006612,-99999.0,'11111222,11111222,99999999' 
TABS,ioos:station:wmo:42048:1,2008-01-02T01:30:00Z,27.9396,-96.8429,2.0,215.7496418,37.65519353,-99999.0,'11111222,11111222,99999999' 
TABS,ioos:station:wmo:42048:1,2008-01-02T02:00:00Z,27.9396,-96.8429,2.0,220.1052908,39.36675882,-99999.0,'11111222,11111222,99999999' 
TABS,ioos:station:wmo:42048:1,2008-01-02T02:30:00Z,27.9396,-96.8429,2.0,224.488809,37.2730801,-99999.0,'11111222,11111222,99999999' 
TABS,ioos:station:wmo:42048:1,2008-01-02T03:00:00Z,27.9396,-96.8429,2.0,220.6971815,35.53325907,-99999.0,'11111222,11111222,99999999' 
TABS,ioos:station:wmo:42048:1,2008-01-02T03:30:00Z,27.9396,-96.8429,2.0,221.3150699,36.64023062,-99999.0,'11111222,11111222,99999999' 
TABS,ioos:station:wmo:42048:1,2008-01-02T04:00:00Z,27.9396,-96.8429,2.0,220.1940943,35.28137469,-99999.0,'11111222,11111222,99999999' 
TABS,ioos:station:wmo:42048:1,2008-01-02T04:30:00Z,27.9396,-96.8429,2.0,223.2176106,30.69620986,-99999.0,'11111222,11111222,99999999' 
TABS,ioos:station:wmo:42048:1,2008-01-02T05:00:00Z,27.9396,-96.8429,2.0,219.7238791,38.75808303,-99999.0,'11111222,11111222,99999999' 
TABS,ioos:station:wmo:42048:1,2008-01-02T05:30:00Z,27.9396,-96.8429,2.0,219.7200316,38.72991867,-99999.0,'11111222,11111222,99999999' 
TABS,ioos:station:wmo:42048:1,2008-01-02T06:00:00Z,27.9396,-96.8429,2.0,215.4616526,36.05888656,-99999.0,'11111222,11111222,99999999' 
TABS,ioos:station:wmo:42048:1,2008-01-02T06:30:00Z,27.9396,-96.8429,2.0,222.4500751,39.26207967,-99999.0,'11111222,11111222,99999999' 
TABS,ioos:station:wmo:42048:1,2008-01-02T07:00:00Z,27.9396,-96.8429,2.0,216.3323174,39.88375358,-99999.0,'11111222,11111222,99999999' 
TABS,ioos:station:wmo:42048:1,2008-01-02T07:30:00Z,27.9396,-96.8429,2.0,224.7925426,39.11740278,-99999.0,'11111222,11111222,99999999' 
TABS,ioos:station:wmo:42048:1,2008-01-02T08:00:00Z,27.9396,-96.8429,2.0,219.2979546,36.44072447,-99999.0,'11111222,11111222,99999999' 
TABS,ioos:station:wmo:42048:1,2008-01-02T08:30:00Z,27.9396,-96.8429,2.0,225.0403051,39.89497462,-99999.0,'11111222,11111222,99999999' 
TABS,ioos:station:wmo:42048:1,2008-01-02T09:00:00Z,27.9396,-96.8429,2.0,222.1100516,40.11567773,-99999.0,'11111222,11111222,99999999' 
TABS,ioos:station:wmo:42048:1,2008-01-02T09:30:00Z,27.9396,-96.8429,2.0,220.1072273,41.78669645,-99999.0,'11111222,11111222,99999999' 
TABS,ioos:station:wmo:42048:1,2008-01-02T10:00:00Z,27.9396,-96.8429,2.0,227.3021601,38.19338817,-99999.0,'11111222,11111222,99999999' 
TABS,ioos:station:wmo:42048:1,2008-01-02T10:30:00Z,27.9396,-96.8429,2.0,226.6825097,38.5256512,-99999.0,'11111222,11111222,99999999' 
TABS,ioos:station:wmo:42048:1,2008-01-02T11:00:00Z,27.9396,-96.8429,2.0,222.4286472,43.19113335,-99999.0,'11111222,11111222,99999999' 
TABS,ioos:station:wmo:42048:1,2008-01-02T11:30:00Z,27.9396,-96.8429,2.0,221.3259221,40.72110632,-99999.0,'11111222,11111222,99999999' 
TABS,ioos:station:wmo:42048:1,2008-01-02T12:00:00Z,27.9396,-96.8429,2.0,223.024015,37.7395098,-99999.0,'11111222,11111222,99999999' 
TABS,ioos:station:wmo:42048:1,2008-01-02T12:30:00Z,27.9396,-96.8429,2.0,223.0747047,34.10179174,-99999.0,'11111222,11111222,99999999' 
TABS,ioos:station:wmo:42048:1,2008-01-02T13:00:00Z,27.9396,-96.8429,2.0,227.3607404,39.99255556,-99999.0,'11111222,11111222,99999999' 
TABS,ioos:station:wmo:42048:1,2008-01-02T13:30:00Z,27.9396,-96.8429,2.0,230.2556998,33.34594428,-99999.0,'11111222,11111222,99999999' 
TABS,ioos:station:wmo:42048:1,2008-01-02T14:00:00Z,27.9396,-96.8429,2.0,221.418776,38.60562265,-99999.0,'11111222,11111222,99999999' 
TABS,ioos:station:wmo:42048:1,2008-01-02T14:30:00Z,27.9396,-96.8429,2.0,231.2529141,34.99077164,-99999.0,'11111222,11111222,99999999' 
TABS,ioos:station:wmo:42048:1,2008-01-02T15:00:00Z,27.9396,-96.8429,2.0,224.4157426,36.07846172,-99999.0,'11111222,11111222,99999999' 
TABS,ioos:station:wmo:42048:1,2008-01-02T15:30:00Z,27.9396,-96.8429,2.0,224.7969086,35.96367612,-99999.0,'11111222,11111222,99999999' 
TABS,ioos:station:wmo:42048:1,2008-01-03T11:00:00Z,27.9396,-96.8429,2.0,233.09435,22.64800433,-99999.0,'11111222,11111222,99999999' 
TABS,ioos:station:wmo:42048:1,2008-01-03T11:30:00Z,27.9396,-96.8429,2.0,223.6817917,23.67312611,-99999.0,'11111222,11111222,99999999' 
TABS,ioos:station:wmo:42048:1,2008-01-03T12:00:00Z,27.9396,-96.8429,2.0,228.4117627,28.15740933,-99999.0,'11111222,11111222,99999999' 
TABS,ioos:station:wmo:42048:1,2008-01-03T12:30:00Z,27.9396,-96.8429,2.0,225.9971416,31.68318481,-99999.0,'11111222,11111222,99999999' 
TABS,ioos:station:wmo:42048:1,2008-01-03T13:00:00Z,27.9396,-96.8429,2.0,224.4034163,31.25581226,-99999.0,'11111222,11111222,99999999' 
TABS,ioos:station:wmo:42048:1,2008-01-03T13:30:00Z,27.9396,-96.8429,2.0,226.6507056,30.43236764,-99999.0,'11111222,11111222,99999999' 
TABS,ioos:station:wmo:42048:1,2008-01-03T14:00:00Z,27.9396,-96.8429,2.0,230.651019,28.57874035,-99999.0,'11111222,11111222,99999999' 
TABS,ioos:station:wmo:42048:1,2008-01-03T14:30:00Z,27.9396,-96.8429,2.0,229.8498872,33.03411116,-99999.0,'11111222,11111222,99999999' 
TABS,ioos:station:wmo:42048:1,2008-01-03T15:00:00Z,27.9396,-96.8429,2.0,220.8096864,34.8403473,-99999.0,'11111222,11111222,99999999' 
TABS,ioos:station:wmo:42048:1,2008-01-03T15:30:00Z,27.9396,-96.8429,2.0,223.9359029,36.56372246,-99999.0,'11111222,11111222,99999999' 
TABS,ioos:station:wmo:42048:1,2008-01-03T16:00:00Z,27.9396,-96.8429,2.0,218.3035202,32.92831153,-99999.0,'11111222,11111222,99999999' 
TABS,ioos:station:wmo:42048:1,2008-01-03T16:30:00Z,27.9396,-96.8429,2.0,222.6547354,34.56403912,-99999.0,'11111222,11111222,99999999' 
TABS,ioos:station:wmo:42048:1,2008-01-03T17:00:00Z,27.9396,-96.8429,2.0,221.436774,33.90766875,-99999.0,'11111222,11111222,99999999' 
TABS,ioos:station:wmo:42048:1,2008-01-03T17:30:00Z,27.9396,-96.8429,2.0,224.8820343,30.99255556,-99999.0,'11111222,11111222,99999999' 
TABS,ioos:station:wmo:42048:1,2008-01-03T18:00:00Z,27.9396,-96.8429,2.0,220.4846404,29.91151785,-99999.0,'11111222,11111222,99999999' 
TABS,ioos:station:wmo:42048:1,2008-01-03T18:30:00Z,27.9396,-96.8429,2.0,222.2595686,41.85908384,-99999.0,'11111222,11111222,99999999' 
TABS,ioos:station:wmo:42048:1,2008-01-03T19:00:00Z,27.9396,-96.8429,2.0,218.6955681,37.22090004,-99999.0,'11111222,11111222,99999999' 
TABS,ioos:station:wmo:42048:1,2008-01-03T19:30:00Z,27.9396,-96.8429,2.0,217.1895799,30.4404747,-99999.0,'11111222,11111222,99999999' 
TABS,ioos:station:wmo:42048:1,2008-01-03T20:00:00Z,27.9396,-96.8429,2.0,229.7299209,32.24074441,-99999.0,'11111222,11111222,99999999' 
TABS,ioos:station:wmo:42048:1,2008-01-03T20:30:00Z,27.9396,-96.8429,2.0,232.0009355,30.04983195,-99999.0,'11111222,11111222,99999999' 
TABS,ioos:station:wmo:42048:1,2008-01-03T21:00:00Z,27.9396,-96.8429,2.0,234.1760758,29.35289424,-99999.0,'11111222,11111222,99999999' 
TABS,ioos:station:wmo:42048:1,2008-01-03T21:30:00Z,27.9396,-96.8429,2.0,233.5698342,32.02894472,-99999.0,'11111222,11111222,99999999' 
TABS,ioos:station:wmo:42048:1,2008-01-03T22:00:00Z,27.9396,-96.8429,2.0,234.3554826,28.14243948,-99999.0,'11111222,11111222,99999999' 
TABS,ioos:station:wmo:42048:1,2008-01-03T22:30:00Z,27.9396,-96.8429,2.0,234.5051304,29.33045005,-99999.0,'11111222,11111222,99999999' 
TABS,ioos:station:wmo:42048:1,2008-01-03T23:00:00Z,27.9396,-96.8429,2.0,232.0393645,28.27111954,-99999.0,'11111222,11111222,99999999' 
TABS,ioos:station:wmo:42048:1,2008-01-03T23:30:00Z,27.9396,-96.8429,2.0,224.1638864,25.69192286,-99999.0,'11111222,11111222,99999999' 
TABS,ioos:station:wmo:42048:1,2008-01-04T00:00:00Z,27.9396,-96.8429,2.0,227.7698936,28.09082412,-99999.0,'11111222,11111222,99999999' 
TABS,ioos:station:wmo:42048:1,2008-01-04T00:30:00Z,27.9396,-96.8429,2.0,221.7275382,27.74968468,-99999.0,'11111222,11111222,99999999' 
TABS,ioos:station:wmo:42048:1,2008-01-04T01:00:00Z,27.9396,-96.8429,2.0,217.7925109,24.46117332,-99999.0,'11111222,11111222,99999999' 
TABS,ioos:station:wmo:42048:1,2008-01-04T01:30:00Z,27.9396,-96.8429,2.0,220.2802066,22.86048993,-99999.0,'11111222,11111222,99999999' 
TABS,ioos:station:wmo:42048:1,2008-01-04T02:00:00Z,27.9396,-96.8429,2.0,222.6699552,24.00490367,-99999.0,'11111222,11111222,99999999' 
TABS,ioos:station:wmo:42048:1,2008-01-04T02:30:00Z,27.9396,-96.8429,2.0,220.8180172,24.33977198,-99999.0,'11111222,11111222,99999999' 
TABS,ioos:station:wmo:42048:1,2008-01-04T03:00:00Z,27.9396,-96.8429,2.0,218.6994124,22.42343417,-99999.0,'11111222,11111222,99999999' 
TABS,ioos:station:wmo:42048:1,2008-01-04T03:30:00Z,27.9396,-96.8429,2.0,221.1527059,21.28945748,-99999.0,'11111222,11111222,99999999' 
TABS,ioos:station:wmo:42048:1,2008-01-04T04:00:00Z,27.9396,-96.8429,2.0,220.1143222,20.17634506,-99999.0,'11111222,11111222,99999999' 
TABS,ioos:station:wmo:42048:1,2008-01-04T04:30:00Z,27.9396,-96.8429,2.0,215.750149,21.60012268,-99999.0,'11111222,11111222,99999999' 
TABS,ioos:station:wmo:42048:1,2008-01-04T05:00:00Z,27.9396,-96.8429,2.0,221.6498122,20.08787196,-99999.0,'11111222,11111222,99999999' 
TABS,ioos:station:wmo:42048:1,2008-01-04T05:30:00Z,27.9396,-96.8429,2.0,218.184928,24.13435932,-99999.0,'11111222,11111222,99999999' 
TABS,ioos:station:wmo:42048:1,2008-01-04T06:00:00Z,27.9396,-96.8429,2.0,216.8585144,20.67200039,-99999.0,'11111222,11111222,99999999' 
TABS,ioos:station:wmo:42048:1,2008-01-04T06:30:00Z,27.9396,-96.8429,2.0,222.0679672,21.01443314,-99999.0,'11111222,11111222,99999999' 
TABS,ioos:station:wmo:42048:1,2008-01-04T07:00:00Z,27.9396,-96.8429,2.0,217.8141312,20.74681903,-99999.0,'11111222,11111222,99999999' 
TABS,ioos:station:wmo:42048:1,2008-01-04T07:30:00Z,27.9396,-96.8429,2.0,220.9385286,20.0685849,-99999.0,'11111222,11111222,99999999' 
TABS,ioos:station:wmo:42048:1,2008-01-04T08:00:00Z,27.9396,-96.8429,2.0,213.2516723,19.58703653,-99999.0,'11111222,11111222,99999999' 
TABS,ioos:station:wmo:42048:1,2008-01-04T08:30:00Z,27.9396,-96.8429,2.0,220.731801,18.05299975,-99999.0,'11111222,11111222,99999999' 
TABS,ioos:station:wmo:42048:1,2008-01-04T09:00:00Z,27.9396,-96.8429,2.0,213.9624098,18.65200525,-99999.0,'11111222,11111222,99999999' 
TABS,ioos:station:wmo:42048:1,2008-01-04T09:30:00Z,27.9396,-96.8429,2.0,222.3234451,18.47563801,-99999.0,'11111222,11111222,99999999' 
TABS,ioos:station:wmo:42048:1,2008-01-04T10:00:00Z,27.9396,-96.8429,2.0,222.7962001,17.47138518,-99999.0,'11111222,11111222,99999999' 
TABS,ioos:station:wmo:42048:1,2008-01-04T10:30:00Z,27.9396,-96.8429,2.0,223.3840264,18.80944709,-99999.0,'11111222,11111222,99999999' 
TABS,ioos:station:wmo:42048:1,2008-01-04T11:00:00Z,27.9396,-96.8429,2.0,228.8799718,15.46452068,-99999.0,'11111222,11111222,99999999' 
TABS,ioos:station:wmo:42048:1,2008-01-04T11:30:00Z,27.9396,-96.8429,2.0,216.7507459,15.42603319,-99999.0,'11111222,11111222,99999999' 
TABS,ioos:station:wmo:42048:1,2008-01-04T12:00:00Z,27.9396,-96.8429,2.0,231.0781435,17.09495832,-99999.0,'11111222,11111222,99999999' 
TABS,ioos:station:wmo:42048:1,2008-01-04T12:30:00Z,27.9396,-96.8429,2.0,228.0987366,15.30295723,-99999.0,'11111222,11111222,99999999' 
TABS,ioos:station:wmo:42048:1,2008-01-04T13:00:00Z,27.9396,-96.8429,2.0,240.3817147,15.11490986,-99999.0,'11111222,11111222,99999999' 
TABS,ioos:station:wmo:42048:1,2008-01-04T13:30:00Z,27.9396,-96.8429,2.0,227.9576189,16.30639445,-99999.0,'11111222,11111222,99999999' 
TABS,ioos:station:wmo:42048:1,2008-01-04T14:00:00Z,27.9396,-96.8429,2.0,236.2986644,14.54423941,-99999.0,'11111222,11111222,99999999' 
TABS,ioos:station:wmo:42048:1,2008-01-04T14:30:00Z,27.9396,-96.8429,2.0,234.7443085,16.0423689,-99999.0,'11111222,11111222,99999999' 
TABS,ioos:station:wmo:42048:1,2008-01-04T15:00:00Z,27.9396,-96.8429,2.0,229.4030011,13.44643447,-99999.0,'11111222,11111222,99999999' 
TABS,ioos:station:wmo:42048:1,2008-01-04T15:30:00Z,27.9396,-96.8429,2.0,223.4656047,13.99866065,-99999.0,'11111222,11111222,99999999' 
TABS,ioos:station:wmo:42048:1,2008-01-04T16:00:00Z,27.9396,-96.8429,2.0,236.2543497,14.38338277,-99999.0,'11111222,11111222,99999999' 
TABS,ioos:station:wmo:42048:1,2008-01-04T16:30:00Z,27.9396,-96.8429,2.0,237.6266313,13.87671791,-99999.0,'11111222,11111222,99999999' 
TABS,ioos:station:wmo:42048:1,2008-01-04T17:00:00Z,27.9396,-96.8429,2.0,239.8327494,15.66105041,-99999.0,'11111222,11111222,99999999' 
TABS,ioos:station:wmo:42048:1,2008-01-04T17:30:00Z,27.9396,-96.8429,2.0,239.8203305,13.90469345,-99999.0,'11111222,11111222,99999999' 
TABS,ioos:station:wmo:42048:1,2008-01-04T18:00:00Z,27.9396,-96.8429,2.0,245.3391124,12.9181926,-99999.0,'11111222,11111222,99999999' 
TABS,ioos:station:wmo:42048:1,2008-01-04T18:30:00Z,27.9396,-96.8429,2.0,242.1276917,11.76477794,-99999.0,'11111222,11111222,99999999' 
TABS,ioos:station:wmo:42048:1,2008-01-04T19:00:00Z,27.9396,-96.8429,2.0,250.6922183,12.46081859,-99999.0,'11111222,11111222,99999999' 
TABS,ioos:station:wmo:42048:1,2008-01-04T19:30:00Z,27.9396,-96.8429,2.0,259.7661642,11.4826652,-99999.0,'11111222,11111222,99999999' 
TABS,ioos:station:wmo:42048:1,2008-01-04T20:00:00Z,27.9396,-96.8429,2.0,256.2100271,11.83099742,-99999.0,'11111222,11111222,99999999' 
TABS,ioos:station:wmo:42048:1,2008-01-04T20:30:00Z,27.9396,-96.8429,2.0,246.5216367,8.885611965,-99999.0,'11133222,11111222,99999999' 
TABS,ioos:station:wmo:42048:1,2008-01-04T21:00:00Z,27.9396,-96.8429,2.0,265.1887493,11.08906669,-99999.0,'11111222,11111222,99999999' 
TABS,ioos:station:wmo:42048:1,2008-01-04T21:30:00Z,27.9396,-96.8429,2.0,265.0565799,9.284530144,-99999.0,'11133222,11111222,99999999' 
TABS,ioos:station:wmo:42048:1,2008-01-04T22:00:00Z,27.9396,-96.8429,2.0,266.0099779,10.2047293,-99999.0,'11111222,11111222,99999999' 
TABS,ioos:station:wmo:42048:1,2008-01-04T22:30:00Z,27.9396,-96.8429,2.0,255.5251383,8.561757997,-99999.0,'11133222,11111222,99999999' 
TABS,ioos:station:wmo:42048:1,2008-01-04T23:00:00Z,27.9396,-96.8429,2.0,252.8237156,6.908082223,-99999.0,'11133222,11111222,99999999' 
TABS,ioos:station:wmo:42048:1,2008-01-04T23:30:00Z,27.9396,-96.8429,2.0,242.4367135,8.730933513,-99999.0,'11133222,11111222,99999999' 
TABS,ioos:station:wmo:42048:1,2008-01-05T00:00:00Z,27.9396,-96.8429,2.0,263.6900798,6.187479293,-99999.0,'11133222,11111222,99999999' 
TABS,ioos:station:wmo:42048:1,2008-01-05T00:30:00Z,27.9396,-96.8429,2.0,239.006131,9.904044628,-99999.0,'11133222,11111222,99999999' 
TABS,ioos:station:wmo:42048:1,2008-01-05T01:00:00Z,27.9396,-96.8429,2.0,224.3094087,7.043294684,-99999.0,'11133222,11111222,99999999' 
TABS,ioos:station:wmo:42048:1,2008-01-05T01:30:00Z,27.9396,-96.8429,2.0,228.9269702,8.56904312,-99999.0,'11133222,11111222,99999999' 
TABS,ioos:station:wmo:42048:1,2008-01-05T02:00:00Z,27.9396,-96.8429,2.0,231.0423922,6.918590897,-99999.0,'11133222,11111222,99999999' 
TABS,ioos:station:wmo:42048:1,2008-01-05T02:30:00Z,27.9396,-96.8429,2.0,243.7932946,7.857696864,-99999.0,'11133222,11111222,99999999' 
TABS,ioos:station:wmo:42048:1,2008-01-05T03:00:00Z,27.9396,-96.8429,2.0,209.8631205,8.394688797,-99999.0,'11133222,11111222,99999999' 
TABS,ioos:station:wmo:42048:1,2008-01-05T03:30:00Z,27.9396,-96.8429,2.0,232.8753276,4.954048849,-99999.0,'11133222,11111222,99999999' 
TABS,ioos:station:wmo:42048:1,2008-01-05T04:00:00Z,27.9396,-96.8429,2.0,218.1900324,9.720581258,-99999.0,'11133222,11111222,99999999' 
TABS,ioos:station:wmo:42048:1,2008-01-05T04:30:00Z,27.9396,-96.8429,2.0,211.5810076,10.02467456,-99999.0,'11111222,11111222,99999999' 
TABS,ioos:station:wmo:42048:1,2008-01-05T05:00:00Z,27.9396,-96.8429,2.0,215.1728294,11.14488672,-99999.0,'11111222,11111222,99999999' 
TABS,ioos:station:wmo:42048:1,2008-01-05T05:30:00Z,27.9396,-96.8429,2.0,204.3891069,6.950237406,-99999.0,'11133222,11111222,99999999' 
TABS,ioos:station:wmo:42048:1,2008-01-05T06:00:00Z,27.9396,-96.8429,2.0,227.5183969,9.654263307,-99999.0,'11133222,11111222,99999999' 
TABS,ioos:station:wmo:42048:1,2008-01-05T06:30:00Z,27.9396,-96.8429,2.0,225.0780641,10.33791081,-99999.0,'11111222,11111222,99999999' 
TABS,ioos:station:wmo:42048:1,2008-01-05T07:00:00Z,27.9396,-96.8429,2.0,213.8264752,8.137475038,-99999.0,'11133222,11111222,99999999' 
TABS,ioos:station:wmo:42048:1,2008-01-05T07:30:00Z,27.9396,-96.8429,2.0,223.7281059,12.42692641,-99999.0,'11111222,11111222,99999999' 
TABS,ioos:station:wmo:42048:1,2008-01-05T08:00:00Z,27.9396,-96.8429,2.0,215.3659237,12.04214682,-99999.0,'11111222,11111222,99999999' 
TABS,ioos:station:wmo:42048:1,2008-01-05T08:30:00Z,27.9396,-96.8429,2.0,217.0519876,13.19406685,-99999.0,'11111222,11111222,99999999' 
TABS,ioos:station:wmo:42048:1,2008-01-05T09:00:00Z,27.9396,-96.8429,2.0,214.4836625,12.01041215,-99999.0,'11111222,11111222,99999999' 
TABS,ioos:station:wmo:42048:1,2008-01-05T09:30:00Z,27.9396,-96.8429,2.0,215.1415963,11.27512749,-99999.0,'11111222,11111222,99999999' 
TABS,ioos:station:wmo:42048:1,2008-01-05T10:00:00Z,27.9396,-96.8429,2.0,200.2492397,13.78179234,-99999.0,'11111222,11111222,99999999' 
TABS,ioos:station:wmo:42048:1,2008-01-05T10:30:00Z,27.9396,-96.8429,2.0,207.4427381,14.88501596,-99999.0,'11111222,11111222,99999999' 
TABS,ioos:station:wmo:42048:1,2008-01-05T11:00:00Z,27.9396,-96.8429,2.0,208.2106423,13.39062732,-99999.0,'11111222,11111222,99999999' 
TABS,ioos:station:wmo:42048:1,2008-01-05T11:30:00Z,27.9396,-96.8429,2.0,212.5708195,13.63435734,-99999.0,'11111222,11111222,99999999' 
TABS,ioos:station:wmo:42048:1,2008-01-05T12:00:00Z,27.9396,-96.8429,2.0,217.096434,17.17613461,-99999.0,'11111222,11111222,99999999' 
TABS,ioos:station:wmo:42048:1,2008-01-05T12:30:00Z,27.9396,-96.8429,2.0,217.5726233,16.13721475,-99999.0,'11111222,11111222,99999999' 
TABS,ioos:station:wmo:42048:1,2008-01-05T13:00:00Z,27.9396,-96.8429,2.0,221.2640339,16.4964966,-99999.0,'11111222,11111222,99999999' 
TABS,ioos:station:wmo:42048:1,2008-01-05T13:30:00Z,27.9396,-96.8429,2.0,219.6084405,15.65388131,-99999.0,'11111222,11111222,99999999' 
TABS,ioos:station:wmo:42048:1,2008-01-05T14:00:00Z,27.9396,-96.8429,2.0,224.3006759,15.64943769,-99999.0,'11111222,11111222,99999999' 
TABS,ioos:station:wmo:42048:1,2008-01-05T14:30:00Z,27.9396,-96.8429,2.0,223.7817714,17.96457069,-99999.0,'11111222,11111222,99999999' 
TABS,ioos:station:wmo:42048:1,2008-01-05T15:00:00Z,27.9396,-96.8429,2.0,225.9668923,18.01257616,-99999.0,'11111222,11111222,99999999' 
TABS,ioos:station:wmo:42048:1,2008-01-05T15:30:00Z,27.9396,-96.8429,2.0,227.555056,18.71451308,-99999.0,'11111222,11111222,99999999' 
TABS,ioos:station:wmo:42048:1,2008-01-05T16:00:00Z,27.9396,-96.8429,2.0,230.0987144,18.45782219,-99999.0,'11111222,11111222,99999999' 